Find STARLINK-37554

NORAD ID: 799501014 Int'l Des: 2026-143Q Constellation: starlink operational

当前视图

正在加载3D地球...

About STARLINK-37554

STARLINK-37554 (NORAD 799501014) is a starlink constellation satellite launched Jun 15, 2026

关于 STARLINK-37554

正在加载描述...

即将过境

Passes for default location (London). Set your location on the main map for personalized predictions.

高度历史

Loading altitude history...

两行轨道根数

1 99999C 2026143Q 26173.15118056 .00586130 00000-0 883610-4 0 1736
2 99999 97.2818 216.0094 0011216 274.3235 331.7274 16.04205402 13
Epoch: Jun 22, 2026 • Age: 5 hours